When you browse on this site, cookies collect data to enhance your experience and personalize the content and advertising you see.
Visit our Privacy Policy to learn more. By continuing to use the site, you agree to this use of cookies and data.
  • en Suisse
  • Liste des pays
  • À 7 jours
  • Température de l'eau
  • Carte satellitaire
  • Carte météo
  • Widgets météo
  • user-avatar
    Se connecter

    Météo par heure à Tomashivtsi

    Ce jour, 26 Avril, Vendredi

    Heure Température Précipitation Vent Pression Humidité
    00:00 +13°C° 0 mm 2 m/s 739 mmHg 89%
    01:00 +13°C° 0 mm 2 m/s 739 mmHg 89%
    02:00 +13°C° 0 mm 2 m/s 738 mmHg 89%
    03:00 +13°C° 0.2 mm 2 m/s 738 mmHg 89%
    04:00 +12°C° 0.2 mm 2 m/s 738 mmHg 89%
    05:00 +12°C° 0.2 mm 2 m/s 738 mmHg 90%
    06:00 +14°C° 0 mm 2 m/s 738 mmHg 85%
    07:00 +16°C° 0 mm 2 m/s 738 mmHg 80%
    08:00 +18°C° 0 mm 3 m/s 738 mmHg 73%
    09:00 +20°C° 0 mm 3 m/s 738 mmHg 65%
    10:00 +22°C° 0 mm 3 m/s 738 mmHg 57%
    11:00 +26°C° 0 mm 3 m/s 738 mmHg 49%
    12:00 +26°C° 0 mm 3 m/s 737 mmHg 47%
    13:00 +27°C° 0 mm 3 m/s 737 mmHg 44%
    14:00 +27°C° 0 mm 4 m/s 737 mmHg 42%
    15:00 +26°C° 0 mm 4 m/s 737 mmHg 48%
    16:00 +23°C° 0 mm 4 m/s 736 mmHg 53%
    17:00 +22°C° 0 mm 4 m/s 736 mmHg 59%
    18:00 +20°C° 0.2 mm 3 m/s 736 mmHg 64%
    19:00 +18°C° 0.2 mm 2 m/s 736 mmHg 70%
    20:00 +17°C° 0.2 mm 2 m/s 736 mmHg 76%
    21:00 +16°C° 0.1 mm 2 m/s 736 mmHg 76%
    22:00 +16°C° 0.1 mm 2 m/s 736 mmHg 76%
    23:00 +16°C° 0.1 mm 2 m/s 736 mmHg 76%

    Demain, 27 Avril, Samedi

    Heure Température Précipitation Vent Pression Humidité
    00:00 +16°C° 0 mm 2 m/s 735 mmHg 76%
    01:00 +16°C° 0 mm 2 m/s 735 mmHg 76%
    02:00 +15°C° 0 mm 2 m/s 735 mmHg 76%
    03:00 +16°C° 0.1 mm 2 m/s 735 mmHg 75%
    04:00 +16°C° 0.1 mm 1 m/s 734 mmHg 74%
    05:00 +16°C° 0.1 mm 1 m/s 734 mmHg 74%
    06:00 +18°C° 0 mm 1 m/s 734 mmHg 72%
    07:00 +18°C° 0 mm 2 m/s 734 mmHg 71%
    08:00 +19°C° 0 mm 2 m/s 734 mmHg 70%
    09:00 +20°C° 0 mm 2 m/s 734 mmHg 65%
    10:00 +21°C° 0 mm 2 m/s 734 mmHg 59%
    11:00 +24°C° 0 mm 2 m/s 734 mmHg 54%
    12:00 +24°C° 0 mm 2 m/s 734 mmHg 52%
    13:00 +25°C° 0 mm 2 m/s 734 mmHg 50%
    14:00 +25°C° 0 mm 3 m/s 733 mmHg 49%
    15:00 +25°C° 0 mm 2 m/s 733 mmHg 51%
    16:00 +24°C° 0 mm 2 m/s 733 mmHg 53%
    17:00 +24°C° 0 mm 2 m/s 733 mmHg 55%
    18:00 +21°C° 0.3 mm 2 m/s 733 mmHg 62%
    19:00 +19°C° 0.3 mm 3 m/s 733 mmHg 70%
    20:00 +18°C° 0.3 mm 3 m/s 733 mmHg 77%
    21:00 +16°C° 0.2 mm 3 m/s 733 mmHg 83%
    22:00 +14°C° 0.2 mm 3 m/s 733 mmHg 89%
    23:00 +13°C° 0.2 mm 3 m/s 733 mmHg 95%

    Après-demain, 28 Avril, Dimanche

    Heure Température Précipitation Vent Pression Humidité
    00:00 +13°C° 0.1 mm 3 m/s 733 mmHg 94%
    01:00 +13°C° 0.1 mm 3 m/s 733 mmHg 94%
    02:00 +13°C° 0.1 mm 3 m/s 733 mmHg 93%
    03:00 +13°C° 0.1 mm 4 m/s 733 mmHg 92%
    04:00 +12°C° 0.1 mm 4 m/s 733 mmHg 92%
    05:00 +12°C° 0.1 mm 4 m/s 733 mmHg 92%
    06:00 +12°C° 0 mm 4 m/s 733 mmHg 91%
    07:00 +12°C° 0 mm 4 m/s 733 mmHg 90%
    08:00 +12°C° 0 mm 4 m/s 733 mmHg 89%
    09:00 +12°C° 0.1 mm 4 m/s 733 mmHg 89%
    10:00 +12°C° 0.1 mm 4 m/s 733 mmHg 89%
    11:00 +12°C° 0.1 mm 4 m/s 733 mmHg 89%
    12:00 +12°C° 0.1 mm 4 m/s 733 mmHg 89%
    13:00 +12°C° 0.1 mm 4 m/s 733 mmHg 89%
    14:00 +12°C° 0.1 mm 5 m/s 733 mmHg 89%
    15:00 +12°C° 0.2 mm 5 m/s 733 mmHg 90%
    16:00 +12°C° 0.2 mm 4 m/s 733 mmHg 91%
    17:00 +11°C° 0.2 mm 4 m/s 732 mmHg 92%
    18:00 +12°C° 0.5 mm 4 m/s 733 mmHg 93%
    19:00 +12°C° 0.5 mm 4 m/s 733 mmHg 94%
    20:00 +12°C° 0.5 mm 4 m/s 733 mmHg 94%
    21:00 +12°C° 1 mm 4 m/s 733 mmHg 95%
    22:00 +12°C° 1 mm 3 m/s 733 mmHg 96%
    23:00 +12°C° 1 mm 3 m/s 733 mmHg 96%

    29 Avril, Lundi

    Heure Température Précipitation Vent Pression Humidité
    00:00 +12°C° 0.8 mm 3 m/s 733 mmHg 96%
    01:00 +12°C° 0.8 mm 3 m/s 733 mmHg 97%
    02:00 +12°C° 0.8 mm 3 m/s 733 mmHg 97%
    03:00 +11°C° 0.7 mm 3 m/s 733 mmHg 97%
    04:00 +11°C° 0.7 mm 3 m/s 732 mmHg 97%
    05:00 +11°C° 0.7 mm 3 m/s 732 mmHg 97%
    06:00 +11°C° 0.9 mm 3 m/s 732 mmHg 96%
    07:00 +11°C° 0.9 mm 3 m/s 732 mmHg 95%
    08:00 +11°C° 0.9 mm 3 m/s 732 mmHg 94%
    09:00 +12°C° 0.3 mm 3 m/s 732 mmHg 94%
    10:00 +12°C° 0.3 mm 3 m/s 732 mmHg 93%
    11:00 +12°C° 0.3 mm 3 m/s 732 mmHg 92%
    12:00 +13°C° 0.1 mm 4 m/s 732 mmHg 90%
    13:00 +13°C° 0.1 mm 4 m/s 732 mmHg 87%
    14:00 +14°C° 0.1 mm 5 m/s 732 mmHg 85%
    15:00 +14°C° 0 mm 5 m/s 732 mmHg 85%
    16:00 +13°C° 0 mm 4 m/s 731 mmHg 86%
    17:00 +13°C° 0 mm 4 m/s 731 mmHg 87%
    18:00 +12°C° 0 mm 4 m/s 731 mmHg 88%
    19:00 +12°C° 0 mm 3 m/s 731 mmHg 90%
    20:00 +12°C° 0 mm 2 m/s 732 mmHg 91%
    21:00 +12°C° 0 mm 2 m/s 732 mmHg 92%
    22:00 +10°C° 0 mm 2 m/s 732 mmHg 92%
    23:00 +10°C° 0 mm 2 m/s 732 mmHg 92%

    30 Avril, Mardi

    Heure Température Précipitation Vent Pression Humidité
    00:00 +11°C° 0 mm 1 m/s 732 mmHg 93%
    01:00 +11°C° 0 mm 1 m/s 732 mmHg 94%
    02:00 +10°C° 0 mm 1 m/s 731 mmHg 95%
    03:00 +11°C° 0 mm 1 m/s 732 mmHg 94%
    04:00 +11°C° 0 mm 1 m/s 732 mmHg 94%
    05:00 +11°C° 0 mm 1 m/s 732 mmHg 93%
    06:00 +12°C° 0.1 mm 1 m/s 732 mmHg 92%
    07:00 +12°C° 0.1 mm 1 m/s 732 mmHg 92%
    08:00 +12°C° 0.1 mm 1 m/s 732 mmHg 91%
    09:00 +13°C° 0.2 mm 2 m/s 732 mmHg 91%
    10:00 +13°C° 0.2 mm 2 m/s 732 mmHg 90%
    11:00 +13°C° 0.2 mm 2 m/s 732 mmHg 90%
    12:00 +13°C° 0.2 mm 2 m/s 732 mmHg 90%
    13:00 +12°C° 0.2 mm 3 m/s 732 mmHg 90%
    14:00 +12°C° 0.2 mm 3 m/s 732 mmHg 90%
    15:00 +11°C° 0.2 mm 3 m/s 732 mmHg 91%
    16:00 +11°C° 0.2 mm 3 m/s 732 mmHg 92%
    17:00 +11°C° 0.2 mm 3 m/s 732 mmHg 92%
    18:00 +10°C° 0.5 mm 3 m/s 732 mmHg 93%
    19:00 +10°C° 0.5 mm 4 m/s 732 mmHg 94%
    20:00 +8°C° 0.5 mm 4 m/s 732 mmHg 95%
    21:00 +9°C° 0.9 mm 3 m/s 733 mmHg 95%
    22:00 +9°C° 0.9 mm 3 m/s 733 mmHg 95%
    23:00 +8°C° 0.9 mm 3 m/s 733 mmHg 96%

    1 Mai, Mercredi

    Heure Température Précipitation Vent Pression Humidité
    00:00 +8°C° 0.6 mm 3 m/s 733 mmHg 95%
    01:00 +8°C° 0.6 mm 3 m/s 733 mmHg 95%
    02:00 +8°C° 0.6 mm 3 m/s 733 mmHg 95%
    03:00 +8°C° 0.1 mm 3 m/s 733 mmHg 95%
    04:00 +7°C° 0.1 mm 3 m/s 733 mmHg 95%
    05:00 +7°C° 0.1 mm 3 m/s 733 mmHg 96%
    06:00 +7°C° 0.1 mm 3 m/s 733 mmHg 94%
    07:00 +7°C° 0.1 mm 3 m/s 733 mmHg 92%
    08:00 +8°C° 0.1 mm 3 m/s 733 mmHg 91%
    09:00 +9°C° 0.1 mm 3 m/s 733 mmHg 83%
    10:00 +10°C° 0.1 mm 3 m/s 733 mmHg 76%
    11:00 +12°C° 0.1 mm 3 m/s 733 mmHg 68%
    12:00 +13°C° 0.1 mm 3 m/s 733 mmHg 63%
    13:00 +13°C° 0.1 mm 3 m/s 733 mmHg 58%
    14:00 +14°C° 0.1 mm 3 m/s 733 mmHg 53%
    15:00 +14°C° 0.2 mm 4 m/s 733 mmHg 56%
    16:00 +14°C° 0.2 mm 4 m/s 733 mmHg 59%
    17:00 +13°C° 0.2 mm 4 m/s 733 mmHg 62%
    18:00 +12°C° 0.3 mm 3 m/s 733 mmHg 68%
    19:00 +10°C° 0.3 mm 3 m/s 733 mmHg 75%
    20:00 +9°C° 0.3 mm 2 m/s 734 mmHg 82%
    21:00 +8°C° 0 mm 2 m/s 734 mmHg 83%
    22:00 +8°C° 0 mm 1 m/s 734 mmHg 84%
    23:00 +7°C° 0 mm 1 m/s 734 mmHg 86%
    Voir plus